This demonstration page uses our WeatherBlox Daily Observations layout. Learn more.

Left ArrowRight Arrow

Hourly Observations for April 14, 2022

Temp ( °F °C ) Dew Point ( °F °C ) Humidity (%) Winds ( mph kmh ) Pressure ( in mb ) Visibility ( mi km ) Precip ( " mm )
12:53 am 00:53 Cloudy with Light Rain 49 9.4 41 5 74 74 S 18 30 30.02 1017 10 16 0.02 0.51
1:53 am 01:53 Cloudy 48 8.9 40 4.4 74 74 S 20 31 30.01 1016 10 16 0.00 0.00
2:36 am 02:36 Cloudy with Light Rain 48 8.9 40 4.4 74 74 S 20 31 30.02 1017 10 16 0.01 0.25
2:53 am 02:53 Cloudy 48 8.9 40 4.4 74 74 S 16 26 30.00 1016 10 16 0.01 0.25
3:53 am 03:53 Cloudy 48 8.9 41 5 77 77 S 14 22 29.97 1015 10 16 0.01 0.25
4:53 am 04:53 Cloudy with Light Rain 48 8.9 41 5 77 77 SSW 14 22 29.96 1015 7 11 0.01 0.25
5:53 am 05:53 Cloudy with Light Rain 47 8.3 43 6.1 86 86 WNW 7 11 29.95 1014 7 11 0.04 1.02
6:15 am 06:15 Cloudy with Light Rain 46 7.8 43 6.1 89 89 W 7 11 29.97 1015 2 3 0.03 0.76
6:42 am 06:42 Cloudy with Light Rain 46 7.8 43 6.1 89 89 WNW 6 9 29.97 1015 4 6 0.06 1.52
6:53 am 06:53 Cloudy with Light Rain 46 7.8 43 6.1 89 89 W 6 9 29.95 1014 5 8 0.06 1.52
7:28 am 07:28 Cloudy with Rain 46 7.8 43 6.1 89 89 WNW 6 9 29.96 1015 2 3 0.07 1.78
7:42 am 07:42 Cloudy with Light Rain 46 7.8 44 6.7 93 93 WNW 6 9 29.96 1015 3 4 0.10 2.54
7:53 am 07:53 Cloudy with Light Rain 46 7.8 44 6.7 93 93 W 6 9 29.95 1014 3 5 0.11 2.79
8:01 am 08:01 Cloudy with Light Rain 46 7.8 44 6.7 93 93 W 5 7 29.97 1015 2 3 0.00 0.00
8:53 am 08:53 Cloudy with Light Rain 47 8.3 44 6.7 90 90 W 6 9 29.96 1014 2 3 0.04 1.02
9:12 am 09:12 Cloudy with Light Rain 47 8.3 45 7.2 93 93 W 5 7 29.97 1015 2 2 0.03 0.76
9:24 am 09:24 Cloudy with Light Rain 47 8.3 45 7.2 93 93 WNW 5 7 29.96 1015 2 3 0.03 0.76
9:32 am 09:32 Cloudy with Light Rain 47 8.3 45 7.2 93 93 WNW 5 7 29.96 1015 3 5 0.04 1.02
9:43 am 09:43 Cloudy with Light Rain 47 8.3 45 7.2 93 93 Calm 29.96 1015 2 3 0.04 1.02
9:53 am 09:53 Cloudy with Light Rain 48 8.9 45 7.2 89 89 W 5 7 29.95 1014 2 3 0.04 1.02
10:00 am 10:00 Cloudy with Mist and Fog 48 8.9 45 7.2 89 89 SSW 5 7 29.96 1015 3 5 0.01 0.25
10:07 am 10:07 Cloudy with Mist and Fog 48 8.9 45 7.2 89 89 SSW 5 7 29.96 1015 3 5 0.01 0.25
10:35 am 10:35 Cloudy with Mist and Fog 48 8.9 46 7.8 93 93 VRB 3 6 29.95 1014 4 6 0.01 0.25
10:45 am 10:45 Cloudy with Mist and Fog 48 8.9 46 7.8 93 93 W 6 9 29.95 1014 3 5 0.01 0.25
10:53 am 10:53 Cloudy with Mist and Fog 48 8.9 46 7.8 93 93 WNW 3 6 29.93 1014 3 5 0.01 0.25
11:26 am 11:26 Cloudy with Light Rain 49 9.4 46 7.8 90 90 W 6 9 29.94 1014 3 5 0.01 0.25
11:32 am 11:32 Cloudy with Light Rain 49 9.4 46 7.8 90 90 W 7 11 29.95 1014 2 3 0.01 0.25
11:53 am 11:53 Cloudy with Light Rain 49 9.4 46 7.8 90 90 WSW 7 11 29.93 1014 2 3 0.03 0.76
12:00 pm 12:00 Cloudy with Light Rain 49 9.4 47 8.3 93 93 W 6 9 29.94 1014 3 5 0.00 0.00
12:09 pm 12:09 Cloudy with Light Rain 49 9.4 47 8.3 93 93 W 7 11 29.94 1014 3 4 0.01 0.25
12:32 pm 12:32 Cloudy with Light Rain 49 9.4 47 8.3 93 93 WSW 6 9 29.94 1014 3 5 0.03 0.76
12:53 pm 12:53 Cloudy with Light Rain 50 10 47 8.3 89 89 SW 5 7 29.92 1013 4 6 0.04 1.02
1:18 pm 13:18 Cloudy with Light Rain 50 10 48 8.9 93 93 WSW 5 7 29.93 1013 3 4 0.02 0.51
1:27 pm 13:27 Cloudy with Light Rain 51 10.6 48 8.9 89 89 WSW 5 7 29.93 1013 4 6 0.02 0.51
1:53 pm 13:53 Cloudy with Light Rain 51 10.6 48 8.9 89 89 WNW 6 9 29.91 1013 4 6 0.02 0.51
2:22 pm 14:22 Cloudy with Mist and Fog 53 11.7 49 9.4 86 86 SW 9 15 29.90 1013 6 10 0.01 0.25
2:53 pm 14:53 Cloudy 54 12.2 50 10 87 87 SSW 13 20 29.88 1012 9 14 0.01 0.25
3:48 pm 15:48 Cloudy 55 13 52 11 88 88 SSW 14 22 29.87 1012 10 16 0.00 0.00
3:53 pm 15:53 Cloudy 56 13.3 50 10 81 81 SSW 17 28 29.86 1011 10 16 0.00 0.00
4:53 pm 16:53 Cloudy with Light Rain 53 11.7 49 9.4 86 86 W 12 19 29.85 1011 4 6 0.01 0.25
5:08 pm 17:08 Cloudy with Rain 53 11.7 49 9.4 86 86 VRB 6 9 29.84 1011 2 3 0.02 0.51
5:13 pm 17:13 Cloudy with Heavy Rain 55 12.8 50 10 83 83 WSW 8 13 29.84 1011 1 2 0.08 2.03
5:17 pm 17:17 Cloudy with Light Rain 54 12.2 50 10 87 87 WNW 6 9 29.85 1011 2 2 0.11 2.79
5:23 pm 17:23 Cloudy with Nearby Thunderstorms 53 11.7 50 10 89 89 W 8 13 29.85 1011 3 5 0.12 3.05
5:28 pm 17:28 Cloudy with Nearby Thunderstorms 53 11.7 50 10 89 89 WNW 6 9 29.85 1011 3 4 0.13 3.30
5:37 pm 17:37 Cloudy with Nearby Thunderstorms 56 13.3 51 10.6 84 84 SW 5 7 29.84 1011 3 5 0.17 4.32
5:53 pm 17:53 Partly Cloudy 57 13.9 52 11.1 83 83 SSW 7 11 29.85 1011 10 16 0.17 4.32
6:53 pm 18:53 Sunny 57 13.9 51 10.6 81 81 S 14 22 29.83 1010 10 16 0.00 0.00
7:53 pm 19:53 Clear 55 12.8 49 9.4 80 80 SSE 12 19 29.84 1010 10 16 0.00 0.00
8:53 pm 20:53 Clear 53 11.7 50 10 89 89 S 13 20 29.87 1011 10 16 0.00 0.00
9:53 pm 21:53 Clear 52 11.1 49 9.4 89 89 S 7 11 29.89 1012 10 16 0.00 0.00
10:53 pm 22:53 Clear 52 11.1 49 9.4 89 89 SW 6 9 29.91 1013 9 14 0.00 0.00
11:06 pm 23:06 Mostly Clear with Mist and Fog 51 10.6 49 9.4 92 92 WNW 5 7 29.92 1013 6 10 0.00 0.00
11:26 pm 23:26 Mostly Cloudy 51 10.6 49 9.4 92 92 WNW 5 7 29.93 1013 7 11 0.00 0.00
11:36 pm 23:36 Partly Cloudy 51 10.6 48 8.9 89 89 WNW 3 6 29.93 1013 8 13 0.00 0.00
11:53 pm 23:53 Partly Cloudy 50 10 43 6.1 77 77 WNW 5 7 29.92 1013 8 13 0.00 0.00

Powered by AerisWeather